Location: Downe
(51.3167°N, 0.0500°E)
Time: 10:44:43
(UTC+00:00)

METEOR-M - Pass Details

Date: 17 November 2019
Orbit: 816 x 820 km, 98.4° (Epoch: 15 December)

Event Time Altitude Azimuth Distance (km) Brightness Sun altitude
Rises 05:30:50 0° 15° (NNE) 3,357 7.4 -16.8°
Reaches altitude 10° 05:33:12 10° 17° (NNE) 2,421 6.7 -16.4°
Maximum altitude 05:38:34 77° 104° (ESE) 843 4.3 -15.6°
Drops below altitude 10° 05:43:54 10° 191° (S) 2,404 6.6 -14.8°
Sets 05:46:14 0° 192° (SSW) 3,332 7.3 -14.4°
